Location: Bonningues
(50.7927°N, 2.0150°E)
Time: 06:23:26
(UTC+00:00)

Landsat 7 - Pass Details

Date: 08 August 2020
Orbit: 701 x 703 km, 98.1° (Epoch: 23 September)

Event Time Altitude Azimuth Distance (km) Brightness Sun altitude
Exits shadow 21:09:01 13° 179° (S) 1,986 5.7 -13.9°
Maximum altitude 21:13:16 61° 259° (W) 803 4.2 -14.3°
Drops below altitude 10° 21:18:00 10° 340° (NNW) 2,183 7.5 -14.8°
Sets 21:20:18 0° 344° (NNW) 3,106 8.5 -15.0°
